Weather in Zherdya

Ukraine / Khmelnitsky District     48°48′32″N   26°26′09″E
temp.,
°C
wind,
m/s
gust,
m/s
humid.,
%
clouds,
%
prec.,
mm/h
press.,
hPa
HPBL,
m
20 january, wed
wed2023:00−8sse358697 0.1 1020187
02:00−8se359399 0.3 1019188
05:00−7sse4791100 0.1 1018224
08:00−7se4795100 0.4 1018231
11:00−5se589299 0.3 1019280
14:00−3sse468899 0.3 1018303
17:00−4se469397 0.0 1018191
20:00−4sse489496 0.0 1019229
21 january, thu
thu2123:00−5sse379671 0.0 1019186
02:00−5sse359543 0.0 101989
05:00−4sse479275 0.0 1019136
08:00−4sse479156 0.0 1018110
11:000sse478514 0.0 1019190
14:00+2sse488740 0.0 1017205
17:000sse478983 0.0 1017139
20:000sse5109267 0.0 1017174
22 january, fri
fri2223:000sse488860 0.0 1016145
02:00+1s598280 0.0 1015145
05:00+1s598258 0.0 1014142
08:00+1sse587937 0.0 1014135
11:00+2sse4978100 0.0 1013164
14:00+4sse497684 0.0 1012197
17:00+2sse498079 0.0 1011152
20:00+1sse498685 0.0 1010147
23 january, sat
sat2323:00+1sse478790 0.0 1010119
02:00+1sse468484 0.0 1009106
05:00+2sse348392 0.0 100858
08:00+2sse478564 0.0 1008114
11:00+3sse488335 0.0 1007204
14:00+4se588354 0.0 1005212
17:00+2se51089100 0.0 1004242
20:00+1se5119277 0.0 1004250
24 january, sun
sun2423:00+1se5109298 0.0 1002220
02:00+1se499499 0.0 1001215
05:00+1se369899 0.0 1000141
08:00+1ese339699 0.1 99988
11:00+2s2499100 2.3 998129
14:00+2sw2498100 3.1 997152
17:00+2nnw019899 1.1 99922
20:00+1sse129682 1.1 100222